Regional Weather Roundup
Issued by NWS

Home | Current Version | Previous Version | Text Only | Print | Product List | Glossary Off
Versions: 1 2 3 4 5 6 7 8 9 10 11 12 13 14 15 16 17 18 19 20 21 22 23 24 25 26 27 28 29 30 31 32 33 34 35 36 37 38 39 40 41 42 43 44 45 46 47 48 49 50

000
ASUS43 KMPX 121910
RWRMN
WEATHER ROUNDUP FOR MINNESOTA
NATIONAL WEATHER SERVICE TWIN CITIES/CHANHASSEN MN
100 PM CST TUE DEC 12 2017


NOTE: "FAIR" INDICATES FEW OR NO CLOUDS BELOW 12,000 FEET WITH NO
SIGNIFICANT WEATHER AND/OR OBSTRUCTIONS TO VISIBILITY. N/A MEANS
CURRENT SKY AND/OR WEATHER CONDITIONS ARE NOT AVAILABLE.

MNZ060>063-068>070-122000-
   Twin Cities Metro

CITY           SKY/WX    TMP DP  RH WIND       PRES   REMARKS
TWIN CITIES    FLURRIES  16   8  71 S5        30.07F WCI   9
ST PAUL        FLURRIES  16   7  67 S6        30.09F WCI   7
CRYSTAL        FLURRIES  17   6  62 S7        30.05F WCI   8
BLAINE         LGT SNOW  18   9  68 S6        30.05F WCI   9
LAKEVILLE      FLURRIES  18  10  73 S6        30.06F WCI   9
EDEN PRAIRIE   FLURRIES  18  10  71 S6        30.05F WCI  10
SOUTH ST PAUL  CLOUDY    17   7  64 S3        30.08F
LAKE ELMO      FLURRIES  18   9  68 S8        30.06F WCI   7
$$
MNZ001>005-007-008-013>017-022>024-027-028-122000-
   Northwest Minnesota

CITY           SKY/WX    TMP DP  RH WIND       PRES   REMARKS
BEMIDJI        LGT SNOW  16  13  89 SE9       29.89F WCI   4
HALLOCK        CLOUDY    25  21  86 S13       29.81F WCI  13
ROSEAU         CLOUDY    18  12  79 SE7       29.85F WCI   8
WARROAD        CLOUDY    16  10  79 SE7       29.86F WCI   6
THIEF RVR FALL CLOUDY    24  22  91 S13       29.85F WCI  12
CROOKSTON      CLOUDY    27  25  93 S12       29.87F WCI  16
FOSSTON        CLOUDY    23  19  86 S12       29.87F WCI  12
DETROIT LAKES  MOSUNNY   28  25  86 SW8       29.90F WCI  20
MOORHEAD       CLOUDY    32  27  80 CALM      29.92F
PARK RAPIDS    CLOUDY    18  15  88 S9        29.90F WCI   7
MAHNOMEN       CLOUDY    26  23  89 SW16      29.87F WCI  13
$$
MNZ006-009>011-018-025>026-122000-
   North Central Minnesota

CITY           SKY/WX    TMP DP  RH WIND       PRES   REMARKS
BAUDETTE       LGT SNOW  14  10  84 SE8       29.87F FOG     WCI   3
FLAG ISLAND    CLOUDY    10   7  85 S13       29.86F WCI  -5
INTL FALLS     LGT SNOW   9   4  80 S5        29.94F WCI   1
WASKISH        LGT SNOW  14  10  85 SE7       29.89F WCI   4
LONGVILLE      CLOUDY    12   9  85 S8        29.95F FOG     WCI   1
GRAND RAPIDS   FLURRIES  11   6  81 S7        29.97F WCI   0
CRANE LAKE     CLOUDY     7   1  78 CALM      29.98F
ORR            CLOUDY     9   1  72 S3        29.92F
COOK           CLOUDY     9   3  78 S3        29.96F
WALKER         LGT SNOW  13   9  85 S6        29.91F WCI   4
$$
MNZ012-019>021-037-122000-
   Northeast Minnesota

CITY           SKY/WX    TMP DP  RH WIND       PRES   REMARKS
DULUTH         CLOUDY    10   3  73 N12       29.96F WCI  -5
ELY            PTSUNNY    3  -2  78 CALM      29.95F
HIBBING        FLURRIES   7   2  80 SE3       29.96F
EVELETH        CLOUDY     6  -1  71 CALM      29.97F
DULUTH HARBOR  CLOUDY    12   5  73 S7        30.05F WCI   2
TWO HARBORS    CLOUDY    16   3  57 CALM      29.97F
SILVER BAY     CLOUDY    12  -6  44 CALM      29.96F
GRAND MARAIS     N/A     13  -3  49 VRB3      30.03F
G MARAIS ARPRT CLOUDY     3  -8  60 W3        29.90F
$$
MNZ029>031-032-039>041-046>048-054>057-064-122000-
   West Central Minnesota

CITY           SKY/WX    TMP DP  RH WIND       PRES   REMARKS
FERGUS FALLS   CLOUDY    32  27  80 S8        29.95F WCI  25
WHEATON        CLOUDY    37  28  70 SW12      29.95F
MORRIS         MOSUNNY   36  27  69 SW13G20   29.94F
ALEXANDRIA     MOSUNNY   25  20  81 SW12      29.94F WCI  14
ELBOW LAKE     FAIR      33  28  83 W10       29.94F HAZE    WCI  25
WADENA         CLOUDY    25  19  80 S3        29.91F
GLENWOOD       MOSUNNY   27  21  80 SW12      29.96F WCI  16
APPLETON       MOSUNNY   37  28  70 SW14      29.96F
BENSON         MOSUNNY   34  27  75 W12       29.98F WCI  25
ORTONVILLE     SUNNY     39  28  65 W9        29.96F
MADISON        PTSUNNY   39  30  70 SW10G17   29.99F
WILLMAR        PTSUNNY   30  25  80 SW7       30.00F WCI  23
$$
MNZ033>034-036-042>043-049>051-058-059-122000-
   Central Minnesota

CITY           SKY/WX    TMP DP  RH WIND       PRES   REMARKS
ST CLOUD       CLOUDY    17  12  80 S8        30.02F WCI   7
SAUK CENTRE    FAIR      24  19  81 S9        29.96F WCI  14
PAYNESVILLE    CLOUDY    24  19  81 S8        30.00F WCI  15
AITKIN         LGT SNOW  12   9  85 S5        29.96F WCI   4
PINE RIVER     CLOUDY    10   9  92 SE9       29.98F FOG     WCI  -2
BRAINERD       CLOUDY    14   9  80 S8        29.97F HAZE    WCI   3
STAPLES        CLOUDY    18  16  93 S6        29.94F WCI   9
LONG PRAIRIE   PTSUNNY   21  18  86 SE8       29.96F WCI  12
LITTLE FALLS   CLOUDY    18  10  73 S7        29.99F WCI   8
LITCHFIELD     CLOUDY    25  18  74 SW5       30.01F WCI  19
BUFFALO        CLOUDY    17  12  78 S6        30.05F HAZE    WCI   9
MAPLE LAKE     CLOUDY    19  14  80 S6        30.04F HAZE    WCI  11
HUTCHINSON     CLOUDY    24  17  75 SW7       30.04F WCI  16
$$
MNZ037-044-045-052-053-122000-
   East Central Minnesota

CITY           SKY/WX    TMP DP  RH WIND       PRES   REMARKS
PRINCETON      LGT SNOW  18  10  73 S5        30.03F WCI  11
MORA           LGT SNOW  12   9  85 S5        30.05F WCI   4
CAMBRIDGE      LGT SNOW  16   7  67 CALM      30.05F VSB 1
RUSH CITY      LGT SNOW  13   6  74 S5        30.05F WCI   5
MOOSE LAKE     LGT SNOW  14   5  67 CALM      30.00F
HINCKLEY       FAIR      14   9  79 S6        30.03F WCI   5
CLOQUET        CLOUDY    10   3  72 CALM      29.98F
MCGREGOR       CLOUDY    14  10  85 SW3       29.99F
$$
MNZ071>073-080-081-089-090-097-098-122000-
   Southwest Minnesota

CITY           SKY/WX    TMP DP  RH WIND       PRES   REMARKS
MONTEVIDEO     CLOUDY    37  28  70 W10       29.99F
GRANITE FALLS  PTSUNNY   38  28  68 SW10      30.02F
CANBY          SUNNY     39  30  69 SW16G25   30.00F
MARSHALL       CLOUDY    35  26  69 W17       30.02F WCI  25
REDWOOD FALLS  CLOUDY    34  24  67 W12       30.03F WCI  25
OLIVIA         CLOUDY    32  27  80 SW9       30.01F WCI  24
PIPESTONE      CLOUDY    34  27  75 W15       30.02F WCI  24
WINDOM           N/A     30  18  59 SW14      30.04F WCI  20
WORTHINGTON    MOSUNNY   30  24  78 SW16      30.04F WCI  19
JACKSON        CLOUDY    30  21  69 MISG      30.06F
TRACY          CLOUDY    33  27  79 SW15      30.02F WCI  23
SLAYTON        CLOUDY    31  26  81 SW14      30.03F WCI  20
$$
MNZ065>067-074>077-082>085-091>093-122000-
   South Central Minnesota

CITY           SKY/WX    TMP DP  RH WIND       PRES   REMARKS
MANKATO        CLOUDY    22  15  75 SW10      30.06F WCI  11
NEW ULM        CLOUDY    25  18  74 S9        30.04F WCI  15
ST JAMES       PTSUNNY   30  23  74 SW9       30.06F WCI  22
FAIRMONT       CLOUDY    30  22  72 W14       30.07F WCI  19
GLENCOE        CLOUDY    23  17  77 S7        30.04F WCI  14
FARIBAULT      CLOUDY    19   9  63 S6        30.06F WCI  11
OWATONNA       CLOUDY    19  12  73 S7        30.07F WCI  10
WASECA         CLOUDY    23  16  74 SW10      30.08F WCI  12
ALBERT LEA     CLOUDY    21  10  63 SW8       30.09F WCI  12
$$
MNZ078>079-086>088-094>096-122000-
   Southeast Minnesota

CITY           SKY/WX    TMP DP  RH WIND       PRES   REMARKS
ROCHESTER      CLOUDY    15   8  73 SW8       30.07F WCI   4
RED WING       CLOUDY    16   1  53 SW5       30.09F WCI   9
STANTON        CLOUDY    19  10  65 S5        30.06F WCI  13
DODGE CENTER   CLOUDY    18   9  68 SW7       30.06F WCI   8
WINONA         CLOUDY    19   5  53 W3        30.13F
AUSTIN         CLOUDY    19   7  58 W7        30.09F WCI  10
PRESTON        CLOUDY    18   5  56 W8        30.08F WCI   8
$$
ABBREVIATIONS USED IN REMARKS
   TC - TEMPERATURES IN CELSIUS
  WCI - WIND CHILL INDEX
   HX - HEAT INDEX
  VSB - VISIBILITY
$$




USA.gov is the U.S. government's official web portal to all federal, state and local government web resources and services.